Aérodrome :







RETROUVEZ-NOUS SUR...

 
LOGIN :

S'inscrire | Disclaimer

   EN    FR    IT 

 









Légende :    VFR   VFR Marginal   IFR   IFR Intensif   IFR Très Intensif
Visi : 
Plafond : 
>= 8 km
>= 3000ft
5 à 8 km
1000 à 3000 ft
1500m à 5 km
500 à 1000 ft
800 à 1500m
200 à 500 ft
< 800m
< 200 ft
Symboles :   Orages  Brouillard  Fortes neiges  Fortes précipitations  Vent > 20 kt






- Altitude de l'aérodrome : 13 ft
- Code IATA : SXM


TNCM - Princess Juliana Int.

DERNIER METAR :
  • 250600Z 08005KT 9999 -SHRA SCT016 27/23 Q1015

METARs EXPIRÉS :
  • 250500Z 10007KT 070V130 9999 FEW016 28/23 Q1016
  • 250400Z 09006KT 060V130 9999 VCSH FEW016 28/24 Q1017

TAF TNCM
Valide du 25 à 06h jusqu'au 26 à 06h UTC


250520Z 2506/2606 08008KT P6SM FEW020
FM250900 VRB04KT P6SM VCSH SCT019 SCT035
FM251400 12011KT P6SM SCT022
FM252000 11010KT P6SM FEW015 SCT030
FIR TJZS / Amérique du Nord



MET'MAP, la Météo Aéronautique d'un coup d'oeil ! - Copyright ORBIFLY Décembre 2007 - Disclaimer

ORBIFLY MET'MAP TEAM :

Programmation & Développement : Alexandra Zaïnal
Sur une idée originale de : Baudouin d'Aumeries
Assistance à la programmation : Marc-Olivier Méhu
Soutien technique & logistique : Manuel Goepfert

Contact : metmap@orbifly.com




SOURCES & CREDITS :

   NOAA